Overview Statistics Trail Chart Weather Telemetry Raw packets
 

This is the latest recevied weather packets stored in our database for station/object GW4003. If no packets are shown the sender has not sent any weather packets the latest 10 day(s).

<< 49 50 51 52 53 54 55 >>
Time Temp. Humidity Pressure Rain* Wind** Luminosity Snow
1788301812 30.56° C 24% 1018.2 hPa 0 mm - - -
1788301508 30.56° C 24% 1018.3 hPa 0 mm - - -
1788301205 30° C 23% 1018.3 hPa 0 mm - - -
1788300901 30° C 25% 1018.3 hPa 0 mm - - -
1788300597 30.56° C 27% 1018.3 hPa 0 mm - - -
1788300294 31.11° C 24% 1018.3 hPa 0 mm - - -
1788299990 31.11° C 23% 1018.3 hPa 0 mm - - -
1788299685 31.11° C 24% 1018.4 hPa 0 mm - - -
1788299382 30.56° C 27% 1018.5 hPa 0 mm - - -
1788299078 30.56° C 26% 1018.6 hPa 0 mm - - -
1788298774 30° C 26% 1018.6 hPa 0 mm - - -
1788298470 30° C 25% 1018.7 hPa 0 mm - - -
1788298166 30° C 27% 1018.6 hPa 0 mm - - -
1788297862 30° C 25% 1018.7 hPa 0 mm - - -
1788297559 30.56° C 24% 1018.7 hPa 0 mm - - -
1788297255 30.56° C 27% 1018.7 hPa 0 mm - - -
1788296952 30° C 26% 1018.7 hPa 0 mm - - -
1788296666 30° C 25% 1018.7 hPa 0 mm - - -
1788296344 29.44° C 26% 1018.7 hPa 0 mm - - -
1788296040 30° C 25% 1018.9 hPa 0 mm - - -
1788295736 30° C 27% 1018.9 hPa 0 mm - - -
1788295433 30° C 26% 1018.9 hPa 0 mm - - -
1788295128 29.44° C 28% 1018.9 hPa 0 mm - - -
1788294824 28.89° C 27% 1019.1 hPa 0 mm - - -
1788294521 28.89° C 27% 1019.2 hPa 0 mm - - -

* Rain latest hour (hover to see other rain measurements)
** Current wind speed in m/s (hover to see current wind gust speed)